Skip Page Navigation
NASA JPL Caltech
NASA Logo - Jet Propulsion Laboratory + View the NASA Portal
+ Center for Near-Earth Object Studies
JPL Home Earth Solar System Stars & Galaxies Technology
JPL Solar System Dynamics
BODIES ORBITS EPHEMERIDES TOOLS PHYSICAL DATA DISCOVERY FAQ SITE MAP
IMPORTANT: The SSD Announcement email list is now available. Major changes are coming in the near future, including possible hostname and/or URL changes. To be notified of such changes, subscribe to this email list.

Please visit this page for more details.


JPL Small-Body Database Browser
Search: [ help ]  
523362 (2017 CA28)
Classification: Main-belt Asteroid          SPK-ID: 2523362
Ephemeris | Orbit Diagram | Orbital Elements | Mission Design | Physical Parameters | Discovery Circumstances ]

[ show orbit diagram ]
Orbital Elements at Epoch 2458600.5 (2019-Apr-27.0) TDB
Reference: JPL 6 (heliocentric ecliptic J2000)
 Element Value Uncertainty (1-sigma)   Units 
e .03413700349849428 7.7636e-08  
a 2.718108984431641 5.936e-08 au
q 2.625320888520809 2.1824e-07 au
i 3.192993130191759 8.337e-06 deg
node 97.34259937946086 0.00017711 deg
peri 13.06299715345641 0.00023157 deg
M 204.7827793792682 0.00014674 deg
tp 2459306.226016185174
(2021-Apr-01.72601619)
0.00066407 TDB
period 1636.811719799141
4.48
5.3619e-05
1.468e-07
d
yr
n .2199397741630154 7.2048e-09 deg/d
Q 2.810897080342472 6.1387e-08 au
  Orbit Determination Parameters
   # obs. used (total)      57  
   data-arc span      4250 days (11.64 yr)  
   first obs. used      2006-09-19  
   last obs. used      2018-05-09  
   planetary ephem.      DE431  
   SB-pert. ephem.      SB431-N16  
   condition code      0  
   norm. resid. RMS      .67035  
   source      ORB  
   producer      Otto Matic  
   solution date      2018-May-31 17:56:28  

Additional Information
 Earth MOID = 1.64236 au 
 Jupiter MOID = 2.21415 au 
 T_jup = 3.357 
[ show covariance matrix ]

Ephemeris | Orbit Diagram | Orbital Elements | Mission Design | Physical Parameters | Discovery Circumstances ]

Physical Parameter Table
Parameter Symbol Value Units Sigma Reference Notes
absolute magnitude H 17.5   n/a MPO495494  

523362 (2017 CA28)          Discovered 2006-Sep-19 by Spacewatch at Kitt Peak
Reference: Last Updated: 2018-05-31

Alternate Designations
 2017 CA28 = 2008 AV18 = 2014 NR13 
Ephemeris | Orbit Diagram | Orbital Elements | Mission Design | Physical Parameters | Discovery Circumstances ]
ABOUT SSD CREDITS/AWARDS PRIVACY/COPYRIGHT GLOSSARY LINKS
FirstGov 2020-Jan-22 02:53 UT
(server date/time)  
NASA Home Page
Site Manager:   Ryan S. Park
Webmaster  Alan B. Chamberlin